DW6610 Weather Reports


time (UTC)temp
C
wind
direction
speed
KPH
gust
KPH
rain 1hr
cm
rain 24hr
cm
rain mn
cm
humidity
%
barometer
mb
20260831061052 24 0 0.0 1.6 0.00 0.00 0.00 87 1018.3
20260831060551 25 0 0.0 1.6 0.00 0.00 0.00 85 1018.4
20260831060126 25 0 0.0 1.6 0.00 0.00 0.00 86 1018.4
20260831055551 25 0 0.0 1.6 0.00 0.00 0.00 85 1018.4
20260831055052 25 0 0.0 1.6 0.00 0.00 0.00 85 1018.4
20260831054602 25 0 0.0 1.6 0.00 0.00 0.00 84 1018.3
20260831054051 25 0 0.0 1.6 0.00 0.00 0.00 84 1018.3
20260831053552 25 0 0.0 1.6 0.00 0.00 0.00 83 1018.4
20260831053112 25 0 0.0 1.6 0.00 0.00 0.00 82 1018.3
20260831052552 25 0 0.0 1.6 0.00 0.00 0.00 82 1018.3
20260831052051 26 0 0.0 1.6 0.00 0.00 0.00 81 1018.2
20260831051614 26 0 0.0 1.6 0.00 0.00 0.00 80 1018.2
20260831051051 26 0 0.0 1.6 0.00 0.00 0.00 80 1018.2
20260831050551 26 82 0.0 3.2 0.00 0.00 0.00 80 1018.1
20260831050120 26 85 0.0 3.2 0.00 0.00 0.00 80 1018.2
20260831045551 26 0 0.0 3.2 0.00 0.00 0.00 79 1018.2
20260831045051 26 0 0.0 3.2 0.00 0.00 0.00 79 1018.1
20260831044607 26 71 0.0 3.2 0.00 0.00 0.00 79 1018.2
20260831044052 26 0 0.0 1.6 0.00 0.00 0.00 78 1018.3
20260831043553 26 0 0.0 4.8 0.00 0.00 0.00 78 1018.3
20260831043103 27 50 0.0 4.8 0.00 0.00 0.00 78 1018.3
20260831042552 27 41 1.6 4.8 0.00 0.00 0.00 77 1018.3
20260831042054 27 57 0.0 4.8 0.00 0.00 0.00 77 1018.3
20260831041604 27 68 1.6 4.8 0.00 0.00 0.00 77 1018.3
20260831041055 27 61 1.6 4.8 0.00 0.00 0.00 77 1018.3
20260831040553 27 77 1.6 4.8 0.00 0.00 0.00 77 1018.3
20260831040105 27 21 1.6 4.8 0.00 0.00 0.00 77 1018.3
20260831035553 27 0 1.6 3.2 0.00 0.00 0.00 76 1018.3
20260831035051 27 70 0.0 6.4 0.00 0.00 0.00 76 1018.3
20260831034600 27 75 1.6 6.4 0.00 0.00 0.00 76 1018.2
20260831034051 27 100 1.6 4.8 0.00 0.00 0.00 76 1018.2
20260831033553 27 46 1.6 4.8 0.00 0.00 0.00 76 1018.1
20260831033113 27 66 0.0 4.8 0.00 0.00 0.00 76 1018.1
20260831032551 27 0 1.6 4.8 0.00 0.00 0.00 76 1018.0
20260831032052 27 93 0.0 4.8 0.00 0.00 0.00 76 1018.1
20260831031605 27 86 1.6 6.4 0.00 0.00 0.00 75 1018.0
20260831031053 27 82 1.6 6.4 0.00 0.00 0.00 75 1018.0
20260831030552 27 71 0.0 6.4 0.00 0.00 0.00 75 1018.0
20260831030105 28 53 1.6 6.4 0.00 0.00 0.00 75 1018.0
20260831025553 28 50 1.6 4.8 0.00 0.00 0.00 75 1017.9
20260831025055 28 70 0.0 4.8 0.00 0.00 0.00 75 1017.9
20260831024605 28 96 0.0 4.8 0.00 0.00 0.00 75 1017.9
20260831024053 28 75 0.0 4.8 0.00 0.00 0.00 75 1017.9
20260831023552 28 31 1.6 6.4 0.00 0.00 0.00 74 1017.8
20260831023111 28 60 1.6 6.4 0.00 0.00 0.00 74 1017.8
20260831022552 28 52 1.6 6.4 0.00 0.00 0.00 74 1017.7
20260831022052 28 94 1.6 4.8 0.00 0.00 0.00 74 1017.7
20260831021614 28 94 1.6 4.8 0.00 0.00 0.00 74 1017.7
20260831021053 28 47 1.6 4.8 0.00 0.00 0.00 74 1017.6
20260831020552 28 32 0.0 3.2 0.00 0.00 0.00 74 1017.5
20260831020116 28 81 0.0 3.2 0.00 0.00 0.00 74 1017.4
20260831015552 28 83 0.0 3.2 0.00 0.00 0.00 73 1017.4
20260831015051 28 68 0.0 4.8 0.00 0.00 0.00 73 1017.4
20260831014604 29 134 0.0 4.8 0.00 0.00 0.00 72 1017.2
20260831014051 29 80 0.0 3.2 0.00 0.00 0.00 72 1017.3
20260831013551 29 0 0.0 3.2 0.00 0.00 0.00 72 1017.3
20260831013101 29 78 0.0 3.2 0.00 0.00 0.00 72 1017.4
20260831012552 29 115 0.0 3.2 0.00 0.00 0.00 72 1017.3
20260831012052 30 129 0.0 3.2 0.00 0.00 0.00 71 1017.2
20260831011609 30 81 0.0 3.2 0.00 0.00 0.00 70 1017.1
20260831011052 30 81 0.0 3.2 0.00 0.00 0.00 70 1017.1
20260831010552 30 79 0.0 3.2 0.00 0.00 0.00 69 1017.0
20260831005556 30 74 0.0 1.6 0.00 0.00 0.00 69 1017.0
20260831005052 30 74 0.0 1.6 0.00 0.00 0.00 67 1016.9
20260831004600 31 0 0.0 1.6 0.00 0.00 0.00 66 1016.9
20260831004052 31 73 0.0 3.2 0.00 0.00 0.00 65 1016.9
20260831003551 31 79 0.0 3.2 0.00 0.00 0.00 65 1017.0
20260831003105 31 0 0.0 1.6 0.00 0.00 0.00 64 1016.9
20260831002644 31 0 0.0 1.6 0.00 0.00 0.00 64 1016.9
20260831002052 31 0 0.0 1.6 0.00 0.00 0.00 63 1016.9
20260831001559 32 0 0.0 3.2 0.00 0.00 0.00 62 1016.8
20260831001051 32 79 0.0 3.2 0.00 0.00 0.00 62 1016.7
20260831000551 32 76 0.0 3.2 0.00 0.00 0.00 62 1016.8
20260831000112 32 0 0.0 4.8 0.00 0.00 0.00 61 1016.9
20260830235552 32 0 0.0 6.4 0.00 0.00 0.00 61 1016.8
20260830235053 33 72 0.0 6.4 0.00 0.00 0.00 60 1016.8
20260830234613 33 88 1.6 6.4 0.00 0.00 0.00 59 1016.8
20260830234056 33 280 1.6 6.4 0.00 0.00 0.00 58 1017.0
20260830233553 33 98 1.6 6.4 0.00 0.00 0.00 58 1016.9
20260830233103 33 81 1.6 8.0 0.00 0.00 0.00 58 1016.9
20260830232553 33 110 1.6 8.0 0.00 0.00 0.00 57 1016.8
20260830232053 34 174 3.2 8.0 0.00 0.00 0.00 57 1016.7
20260830231612 33 245 1.6 8.0 0.00 0.00 0.00 58 1016.7
20260830231051 33 96 3.2 8.0 0.00 0.00 0.00 57 1016.7
20260830230551 34 335 1.6 6.4 0.00 0.00 0.00 57 1016.8
20260830230108 34 82 1.6 8.0 0.00 0.00 0.00 56 1016.8
20260830225553 35 244 1.6 9.7 0.00 0.00 0.00 55 1016.8
20260830225052 35 42 3.2 9.7 0.00 0.00 0.00 55 1016.8
20260830224608 35 112 3.2 8.0 0.00 0.00 0.00 54 1016.8
20260830224052 36 169 3.2 8.0 0.00 0.00 0.00 53 1016.7
20260830223552 36 92 3.2 12.9 0.00 0.00 0.00 52 1016.7
20260830223100 36 105 3.2 12.9 0.00 0.00 0.00 52 1016.7
20260830222553 36 353 3.2 9.7 0.00 0.00 0.00 50 1016.6
20260830222052 36 347 1.6 8.0 0.00 0.00 0.00 49 1016.6
20260830221610 36 110 4.8 8.0 0.00 0.00 0.00 51 1016.7
20260830221052 36 73 3.2 9.7 0.00 0.00 0.00 50 1016.7
20260830220552 37 194 3.2 9.7 0.00 0.00 0.00 49 1016.8
20260830220115 37 37 3.2 9.7 0.00 0.00 0.00 49 1016.7
20260830215554 37 65 3.2 9.7 0.00 0.00 0.00 48 1016.8
20260830215053 37 7 3.2 8.0 0.00 0.00 0.00 48 1016.8
20260830214608 37 306 3.2 8.0 0.00 0.00 0.00 48 1016.8
20260830214052 37 336 3.2 9.7 0.00 0.00 0.00 49 1016.9
20260830213553 37 60 3.2 9.7 0.00 0.00 0.00 48 1016.8
20260830213126 37 54 3.2 9.7 0.00 0.00 0.00 49 1016.9
20260830212552 37 108 3.2 9.7 0.00 0.00 0.00 49 1016.8
20260830212052 37 147 1.6 9.7 0.00 0.00 0.00 50 1016.9
20260830211603 36 75 1.6 9.7 0.00 0.00 0.00 51 1016.9
20260830211052 36 86 3.2 11.3 0.00 0.00 0.00 47 1017.0
20260830210551 36 79 4.8 11.3 0.00 0.00 0.00 49 1017.1
20260830210106 36 29 3.2 9.7 0.00 0.00 0.00 48 1017.1
20260830205552 36 122 4.8 11.3 0.00 0.00 0.00 49 1017.1
20260830205051 37 347 4.8 11.3 0.00 0.00 0.00 48 1017.1
20260830204611 36 74 1.6 11.3 0.00 0.00 0.00 54 1017.2
20260830204053 36 75 3.2 9.7 0.00 0.00 0.00 51 1017.2
20260830203553 36 222 1.6 9.7 0.00 0.00 0.00 52 1017.3
20260830203110 36 294 1.6 11.3 0.00 0.00 0.00 52 1017.3
20260830202552 36 117 3.2 11.3 0.00 0.00 0.00 55 1017.4
20260830202054 35 56 3.2 11.3 0.00 0.00 0.00 53 1017.5
20260830201604 35 121 1.6 9.7 0.00 0.00 0.00 53 1017.5
20260830201051 35 290 4.8 12.9 0.00 0.00 0.00 53 1017.5
20260830200552 35 255 3.2 12.9 0.00 0.00 0.00 54 1017.5
20260830195552 35 94 1.6 8.0 0.00 0.00 0.00 56 1017.7
20260830195055 35 105 3.2 11.3 0.00 0.00 0.00 53 1017.7
20260830194616 35 66 4.8 11.3 0.00 0.00 0.00 55 1017.8
20260830194052 36 46 3.2 8.0 0.00 0.00 0.00 51 1018.0
20260830193552 36 71 1.6 8.0 0.00 0.00 0.00 56 1018.0
20260830193102 35 43 3.2 11.3 0.00 0.00 0.00 55 1018.1
20260830192551 35 96 3.2 11.3 0.00 0.00 0.00 53 1018.3
20260830192051 36 103 1.6 8.0 0.00 0.00 0.00 56 1018.2
20260830191557 35 99 3.2 8.0 0.00 0.00 0.00 54 1018.3
20260830191051 35 352 3.2 8.0 0.00 0.00 0.00 55 1018.4
20260830190553 35 115 3.2 8.0 0.00 0.00 0.00 54 1018.4
20260830190104 35 131 3.2 8.0 0.00 0.00 0.00 54 1018.6
20260830185553 35 105 3.2 9.7 0.00 0.00 0.00 54 1018.6
20260830185052 35 77 4.8 9.7 0.00 0.00 0.00 57 1018.7
20260830184613 35 21 1.6 11.3 0.00 0.00 0.00 57 1018.6
20260830184053 35 89 4.8 11.3 0.00 0.00 0.00 53 1018.7
20260830183551 35 79 3.2 9.7 0.00 0.00 0.00 54 1018.7
20260830183103 35 354 3.2 9.7 0.00 0.00 0.00 52 1018.7
20260830182552 36 122 1.6 4.8 0.00 0.00 0.00 53 1018.8
20260830182052 36 92 1.6 9.7 0.00 0.00 0.00 55 1018.8
20260830181604 35 80 3.2 11.3 0.00 0.00 0.00 52 1018.7
20260830181054 36 55 4.8 11.3 0.00 0.00 0.00 52 1018.7
20260830180551 36 32 3.2 11.3 0.00 0.00 0.00 53 1018.8
20260830180104 35 332 4.8 11.3 0.00 0.00 0.00 51 1018.8
20260830175549 36 72 1.6 11.3 0.00 0.00 0.00 54 1018.9
20260830175049 36 115 4.8 11.3 0.00 0.00 0.00 53 1018.9
20260830174605 35 72 4.8 11.3 0.00 0.00 0.00 52 1018.9
20260830174054 35 24 3.2 12.9 0.00 0.00 0.00 54 1019.0
20260830173553 35 318 6.4 12.9 0.00 0.00 0.00 52 1019.1
20260830173106 35 129 3.2 11.3 0.00 0.00 0.00 52 1019.2
20260830172553 35 75 4.8 11.3 0.00 0.00 0.00 54 1019.2
20260830172050 35 32 3.2 11.3 0.00 0.00 0.00 53 1019.4
20260830171605 35 67 4.8 11.3 0.00 0.00 0.00 53 1019.4
20260830171051 35 295 1.6 12.9 0.00 0.00 0.00 52 1019.4
20260830170553 35 11 4.8 12.9 0.00 0.00 0.00 53 1019.5
20260830170108 34 102 4.8 12.9 0.00 0.00 0.00 55 1019.5
20260830165550 34 332 1.6 9.7 0.00 0.00 0.00 57 1019.5
20260830165050 34 345 4.8 9.7 0.00 0.00 0.00 54 1019.6
20260830164603 34 335 3.2 9.7 0.00 0.00 0.00 59 1019.6
20260830164053 34 24 3.2 9.7 0.00 0.00 0.00 56 1019.6
20260830163554 34 96 1.6 11.3 0.00 0.00 0.00 59 1019.7
20260830163106 34 86 3.2 11.3 0.00 0.00 0.00 57 1019.8
20260830162550 35 79 4.8 11.3 0.00 0.00 0.00 54 1019.7
20260830162049 34 96 3.2 8.0 0.00 0.00 0.00 58 1019.7
20260830161629 34 48 3.2 9.7 0.00 0.00 0.00 57 1019.7
20260830161053 34 87 3.2 9.7 0.00 0.00 0.00 56 1019.8
20260830160554 34 74 3.2 8.0 0.00 0.00 0.00 57 1019.7
20260830160110 34 347 3.2 11.3 0.00 0.00 0.00 55 1019.8
20260830155550 33 25 1.6 11.3 0.00 0.00 0.00 54 1019.8
20260830155050 33 105 3.2 9.7 0.00 0.00 0.00 53 1019.8
20260830154606 33 98 3.2 6.4 0.00 0.00 0.00 55 1019.8
20260830154050 33 127 1.6 6.4 0.00 0.00 0.00 57 1019.8
20260830153549 33 47 3.2 8.0 0.00 0.00 0.00 56 1019.7
20260830153105 33 301 3.2 8.0 0.00 0.00 0.00 56 1019.8
20260830152552 33 167 1.6 8.0 0.00 0.00 0.00 57 1019.8
20260830152050 32 85 1.6 8.0 0.00 0.00 0.00 62 1019.8
20260830151612 32 77 3.2 8.0 0.00 0.00 0.00 61 1019.8
20260830151052 32 118 1.6 9.7 0.00 0.00 0.00 64 1019.7
20260830150550 32 79 3.2 9.7 0.00 0.00 0.00 65 1019.8
20260830150105 32 70 1.6 6.4 0.00 0.00 0.00 65 1019.8
20260830145551 32 94 1.6 6.4 0.00 0.00 0.00 66 1019.8
20260830145052 31 63 1.6 8.0 0.00 0.00 0.00 65 1019.7
20260830144630 31 4 1.6 8.0 0.00 0.00 0.00 69 1019.8
20260830144052 31 72 1.6 8.0 0.00 0.00 0.00 69 1019.8
20260830143558 30 0 0.0 3.2 0.00 0.00 0.00 75 1019.8
20260830143108 30 86 1.6 6.4 0.00 0.00 0.00 72 1019.9
20260830142552 29 78 3.2 6.4 0.00 0.00 0.00 74 1020.0
20260830142052 29 43 1.6 9.7 0.00 0.00 0.00 74 1020.1
20260830141608 28 70 0.0 9.7 0.00 0.00 0.00 76 1020.0
20260830141052 28 315 1.6 8.0 0.00 0.00 0.00 75 1020.1
20260830140552 28 75 0.0 6.4 0.00 0.00 0.00 77 1020.0
20260830140110 27 134 1.6 8.0 0.00 0.00 0.00 77 1020.1
20260830135552 27 75 3.2 8.0 0.00 0.00 0.00 78 1020.1
20260830135052 27 57 1.6 6.4 0.00 0.00 0.00 78 1020.2
20260830134608 27 65 1.6 6.4 0.00 0.00 0.00 78 1020.1
20260830134054 26 79 1.6 6.4 0.00 0.00 0.00 79 1020.1
20260830133551 26 0 1.6 6.4 0.00 0.00 0.00 79 1020.1
20260830133109 26 0 0.0 1.6 0.00 0.00 0.00 80 1020.2
20260830132553 25 0 0.0 1.6 0.00 0.00 0.00 83 1020.1
20260830132051 25 57 0.0 1.6 0.00 0.00 0.00 84 1020.1
20260830131605 24 58 0.0 1.6 0.00 0.00 0.00 89 1020.1
20260830131052 23 0 0.0 1.6 0.00 0.00 0.00 91 1020.1
20260830130551 22 0 0.0 0.0 0.00 0.00 0.00 97 1019.9
20260830130116 21 0 0.0 0.0 0.00 0.00 0.00 97 1020.0
20260830125552 21 0 0.0 0.0 0.00 0.00 0.00 98 1019.8
20260830125051 20 0 0.0 3.2 0.00 0.00 0.00 98 1019.9
20260830124601 20 0 0.0 3.2 0.00 0.00 0.00 98 1019.9
20260830124100 20 0 0.0 1.6 0.00 0.00 0.00 98 1019.8
20260830123552 20 0 0.0 0.0 0.00 0.00 0.00 99 1019.7
20260830123109 19 0 0.0 0.0 0.00 0.00 0.00 99 1019.8
20260830122553 19 0 0.0 0.0 0.00 0.00 0.00 99 1019.7
20260830122054 19 0 0.0 0.0 0.00 0.00 0.00 99 1019.7
20260830121607 19 0 0.0 0.0 0.00 0.00 0.00 99 1019.7
20260830121052 19 0 0.0 0.0 0.00 0.00 0.00 99 1019.6
20260830120552 18 0 0.0 0.0 0.00 0.00 0.00 99 1019.6
20260830120109 18 0 0.0 0.0 0.00 0.00 0.00 99 1019.4
20260830115552 18 0 0.0 0.0 0.00 0.00 0.00 99 1019.4
20260830115053 18 0 0.0 0.0 0.00 0.00 0.00 99 1019.3
20260830114617 18 0 0.0 0.0 0.00 0.00 0.00 99 1019.3
20260830114051 18 0 0.0 1.6 0.00 0.00 0.00 99 1019.3
20260830113556 18 0 0.0 1.6 0.00 0.00 0.00 98 1019.2
20260830113101 18 0 0.0 1.6 0.00 0.00 0.00 99 1019.2
20260830112552 18 0 0.0 1.6 0.00 0.00 0.00 98 1019.1
20260830112055 18 0 0.0 0.0 0.00 0.00 0.00 98 1019.1
20260830111601 18 0 0.0 1.6 0.00 0.00 0.00 98 1019.1
20260830111053 18 0 0.0 1.6 0.00 0.00 0.00 98 1019.0
20260830110552 18 0 0.0 0.0 0.00 0.00 0.00 98 1018.8
20260830110104 18 0 0.0 1.6 0.00 0.00 0.00 98 1018.7
20260830105552 18 0 0.0 1.6 0.00 0.00 0.00 99 1018.6
20260830105052 18 0 0.0 1.6 0.00 0.00 0.00 99 1018.6
20260830104609 18 0 0.0 1.6 0.00 0.00 0.00 99 1018.6
20260830104052 18 0 0.0 1.6 0.00 0.00 0.00 99 1018.5
20260830103555 18 0 0.0 0.0 0.00 0.00 0.00 99 1018.4
20260830103101 18 0 0.0 0.0 0.00 0.00 0.00 99 1018.3
20260830102551 18 0 0.0 0.0 0.00 0.00 0.00 99 1018.3
20260830102052 18 0 0.0 0.0 0.00 0.00 0.00 99 1018.4
20260830101608 18 0 0.0 0.0 0.00 0.00 0.00 99 1018.4
20260830101051 18 0 0.0 0.0 0.00 0.00 0.00 99 1018.4
20260830100552 18 0 0.0 0.0 0.00 0.00 0.00 99 1018.3
20260830100116 18 0 0.0 0.0 0.00 0.00 0.00 99 1018.4
20260830095552 18 0 0.0 0.0 0.00 0.00 0.00 98 1018.5
20260830095052 18 0 0.0 0.0 0.00 0.00 0.00 99 1018.4
20260830094612 18 0 0.0 0.0 0.00 0.00 0.00 98 1018.3
20260830094053 18 0 0.0 0.0 0.00 0.00 0.00 98 1018.4
20260830093551 18 0 0.0 0.0 0.00 0.00 0.00 98 1018.4
20260830093058 18 0 0.0 0.0 0.00 0.00 0.00 98 1018.4
20260830092552 18 0 0.0 0.0 0.00 0.00 0.00 98 1018.4
20260830092052 18 0 0.0 0.0 0.00 0.00 0.00 98 1018.3
20260830091606 18 0 0.0 0.0 0.00 0.00 0.00 98 1018.5
20260830091052 18 0 0.0 0.0 0.00 0.00 0.00 98 1018.5
20260830090551 18 0 0.0 0.0 0.00 0.00 0.00 98 1018.5
20260830090107 18 0 0.0 0.0 0.00 0.00 0.00 98 1018.4
20260830085551 19 0 0.0 0.0 0.00 0.00 0.00 98 1018.4
20260830085057 19 0 0.0 0.0 0.00 0.00 0.00 98 1018.4
20260830084600 19 0 0.0 1.6 0.00 0.00 0.00 98 1018.4
20260830084052 19 0 0.0 1.6 0.00 0.00 0.00 98 1018.3
20260830083552 19 0 0.0 0.0 0.00 0.00 0.00 98 1018.4
20260830083107 19 0 0.0 0.0 0.00 0.00 0.00 98 1018.4
20260830082552 19 0 0.0 0.0 0.00 0.00 0.00 98 1018.5
20260830082051 19 0 0.0 0.0 0.00 0.00 0.00 98 1018.6
20260830081634 19 0 0.0 0.0 0.00 0.00 0.00 98 1018.6
20260830081055 19 0 0.0 0.0 0.00 0.00 0.00 98 1018.6
20260830080551 19 0 0.0 1.6 0.00 0.00 0.00 98 1018.6
20260830080106 19 0 0.0 1.6 0.00 0.00 0.00 98 1018.5
20260830075553 19 0 0.0 1.6 0.00 0.00 0.00 98 1018.6
20260830075051 19 0 0.0 0.0 0.00 0.00 0.00 97 1018.6
20260830074609 19 0 0.0 0.0 0.00 0.00 0.00 97 1018.6
20260830074052 19 0 0.0 0.0 0.00 0.00 0.00 98 1018.7
20260830073553 19 0 0.0 0.0 0.00 0.00 0.00 97 1018.7
20260830073101 20 0 0.0 0.0 0.00 0.00 0.00 98 1018.7
20260830072555 20 0 0.0 0.0 0.00 0.00 0.00 97 1018.7
20260830072052 20 0 0.0 0.0 0.00 0.00 0.00 97 1018.7
20260830071601 20 0 0.0 0.0 0.00 0.00 0.00 97 1018.8
20260830071052 20 0 0.0 0.0 0.00 0.00 0.00 97 1018.8
20260830070552 20 0 0.0 0.0 0.00 0.00 0.00 97 1018.8
20260830070108 20 0 0.0 1.6 0.00 0.00 0.00 97 1018.8
20260830065552 20 0 0.0 1.6 0.00 0.00 0.00 97 1018.8
20260830065052 20 0 0.0 0.0 0.00 0.00 0.00 97 1018.9
20260830064603 20 0 0.0 0.0 0.00 0.00 0.00 97 1018.8
20260830064055 20 0 0.0 0.0 0.00 0.00 0.00 97 1018.9
20260830063552 20 0 0.0 0.0 0.00 0.00 0.00 97 1018.9
20260830063138 20 0 0.0 0.0 0.00 0.00 0.00 97 1018.9
20260830062554 20 0 0.0 1.6 0.00 0.00 0.00 97 1019.0
20260830062051 20 0 0.0 1.6 0.00 0.00 0.00 97 1019.1
20260830061603 20 0 0.0 1.6 0.00 0.00 0.00 96 1019.0